Aéroport int. Stanfield de Halifax, Nouvelle Écosse

Conditions des dernières 24 heures

Ce tableau est un sommaire des conditions météo couvrant les dernières 24 heures. Ce sommaire inclut les paramètres suivants: température, humidité, point de rosée, direction et vitesse du vent, pression barométrique, facteur de refroidissement éolien ou indice humidex.
Date / Heure
(HAA)
Conditions Temp (°C) Humidite (%) Point de rose (°C) Vent (km/h) Pression (kPa) Visibilité (km)
25 avril 2014
2:00 Nuageux 0   93 -1 N 30 100,0 19
1:00 Nuageux 0   94 -1 NNE 32 rafale 53 100,0 16
0:00 Brume 0   95 0 N 36 rafale 46 100,0 10
24 avril 2014
23:00 Pluie faible 0   97 0 N 32 rafale 46 100,0 3
22:00 Pluie faible 0   97 0 N 29 rafale 44 100,0 3
21:00 Pluie faible 0   96 0 N 32 rafale 46 99,9 3
20:00 Pluie faible 0   97 0 N 28 rafale 39 99,7 5
19:00 Grésil 0   97 0 N 25 rafale 41 99,6 3
18:00 Neige faible 0   97 0 N 26 rafale 35 99,6 1
17:00 Pluie faible 1 96 1 NNE 16 99,5 2
16:00 Pluie faible 2 95 1 NE 18 99,4 3
15:00 Pluie faible 2 94 1 ENE 20 99,4 6
14:00 Pluie 3 92 1 NE 21 rafale 30 99,3 6
13:00 Pluie 3 93 2 ENE 25 rafale 35 99,3 6
12:00 Pluie 3 93 2 E 20 rafale 34 99,2 6
11:00 Pluie faible 4   94 3 ENE 14 rafale 32 99,2 6
10:00 Pluie faible 4   94 3 E 15 rafale 43 99,1 6
9:00 Pluie faible 4   94 3 ENE 22 rafale 34 99,1 8
8:00 Pluie faible 4   95 3 ENE 20 rafale 34 99,1 6
7:00 Pluie faible 4   95 3 E 17 rafale 31 99,1 6
6:00 Brume 3 95 3 E 26 rafale 37 99,2 6
5:00 Brume 3 96 2 E 23 rafale 40 99,2 10
4:00 Brume 3 97 2 ESE 26 99,3 5
3:00 Brume 3 97 2 ESE 26 rafale 37 99,4 5
2:00 Brume 3 97 3 ESE 28 rafale 39 99,5 5
N.D.
non disponible
 ↑ 
température la plus haute
 ↓ 
température la plus basse

Si vous désirez plus de données historiques sur les conditions météo, s.v.p. visitez Données climatologiques en ligne.